Home > Weather > Wichita Falls > Past weeks

Flag for USA Past Weather in Wichita Falls, Texas, USA — Yesterday and Last 2 Weeks

Now
93 °F

Sunny.


Feels Like: 100 °F
Forecast: 78 / 103 °F
Wind: 13 mph from South

Location: Wichita Falls - Sheppard Air Force Base

Current Time: Jul 24, 2016 at 11:40:48 AM

Latest Report: Jul 24, 2016 at 10:52 AM


Visibility: 10 mi

Pressure: 29.91 "Hg

Humidity: 49%

Dew Point: 71 °F

Location of Wichita FallsLocation

Past Weather in Wichita Falls — Graph

°F

Wichita Falls Temperature Yesterday

Maximum temperature yesterday: 100 °F (at 2:52 PM)
Minimum temperature yesterday: 73 °F (at 5:52 AM)
Average temperature yesterday: 88 °F

High & Low Weather Summary for the Past Weeks

 TemperatureHumidityPressure
High100 °F (Jul 14, 2:52 PM)93% (Jul 10, 5:52 AM)30.16 "Hg (Jul 10, 5:52 AM)
Low68 °F (Jul 10, 3:52 AM)32% (Jul 23, 3:52 PM)29.67 "Hg (Jul 11, 6:52 PM)
Average85 °F60%29.93 "Hg
* Reported Jul 9 9:52 AM — Jul 24 9:52 AM, Wichita Falls, Weather by CustomWeather, © 2016

Note: Actual official high and low records may vary slightly from our data, if they occured in-between our weather recording intervals... More about our weather records

Advertising

Wichita Falls Weather History for the Previous 24 Hours

Scroll right to see more
 ConditionsComfort  
Time TempWeatherWind HumidityBarometerVisibility
9:52 AM
Sun, Jul 24
89 °FSunny.14 mph53%29.91 "Hg10 mi
8:52 AM84 °FSunny.12 mph63%29.92 "Hg10 mi
7:52 AM77 °FSunny.6 mph77%29.89 "Hg10 mi
6:52 AM74 °FClear.8 mph82%29.88 "Hg10 mi
5:52 AM75 °FClear.No wind76%29.87 "Hg10 mi
4:52 AM76 °FClear.7 mph74%29.85 "Hg10 mi
3:52 AM80 °FClear.9 mph64%29.84 "Hg10 mi
2:52 AM80 °FClear.12 mph64%29.84 "Hg10 mi
1:52 AM83 °FClear.12 mph59%29.85 "Hg10 mi
12:52 AM85 °FClear.13 mph55%29.85 "Hg10 mi
11:52 PM
Sat, Jul 23
85 °FClear.13 mph55%29.85 "Hg10 mi
10:52 PM86 °FClear.13 mph55%29.85 "Hg10 mi
9:52 PM88 °FClear.16 mph52%29.83 "Hg10 mi
8:52 PM90 °FSunny.12 mph50%29.81 "Hg10 mi
7:52 PM94 °FSunny.14 mph44%29.80 "Hg10 mi
6:52 PM98 °FSunny.14 mph34%29.79 "Hg10 mi
5:52 PM99 °FSunny.16 mph34%29.80 "Hg10 mi
4:52 PM99 °FSunny.15 mph34%29.82 "Hg10 mi
3:52 PM100 °FSunny.12 mph32%29.84 "Hg10 mi
2:52 PM100 °FPassing clouds.14 mph33%29.86 "Hg10 mi
1:52 PM99 °FSunny.7 mph33%29.88 "Hg10 mi
12:52 PM98 °FSunny.9 mph34%29.90 "Hg10 mi
11:52 AM96 °FSunny.8 mph38%29.92 "Hg10 mi
Weather by CustomWeather, © 2016

See weather overviewHow to use our weather pages